| time (UTC) | temp F | wind direction | speed MPH | gust MPH | rain 1hr in | rain 24hr in | rain mn in | humidity % | barometer mb |
| 20260902104749 | 64 | 175 | 3.0 | 5.0 | 0.00 | 0.00 | 0.00 | 76 | 999.1 |
| 20260902104235 | 64 | 173 | 3.0 | 5.0 | 0.00 | 0.00 | 0.00 | 76 | 999.1 |
| 20260902103730 | 64 | 175 | 4.0 | 5.0 | 0.00 | 0.00 | 0.00 | 77 | 999.1 |
| 20260902103216 | 64 | 171 | 3.0 | 5.0 | 0.00 | 0.00 | 0.00 | 77 | 999.1 |
| 20260902102712 | 64 | 183 | 4.0 | 5.0 | 0.00 | 0.00 | 0.00 | 76 | 999.0 |
| 20260902102208 | 64 | 172 | 3.0 | 5.0 | 0.00 | 0.00 | 0.00 | 75 | 999.0 |
| 20260902101652 | 64 | 176 | 4.0 | 5.0 | 0.00 | 0.00 | 0.00 | 74 | 999.0 |
| 20260902101148 | 64 | 163 | 4.0 | 5.0 | 0.00 | 0.00 | 0.00 | 75 | 998.9 |
| 20260902100902 | 64 | 171 | 4.0 | 5.0 | 0.00 | 0.00 | 0.00 | 77 | 998.9 |
| 20260902100141 | 64 | 174 | 3.0 | 5.0 | 0.00 | 0.00 | 0.00 | 77 | 998.8 |
| 20260902095625 | 64 | 166 | 4.0 | 5.0 | 0.00 | 0.00 | 0.00 | 77 | 998.8 |
| 20260902095121 | 64 | 177 | 3.0 | 5.0 | 0.00 | 0.00 | 0.00 | 77 | 998.8 |
| 20260902094621 | 64 | 178 | 2.0 | 5.0 | 0.00 | 0.00 | 0.00 | 77 | 998.7 |
| 20260902094120 | 65 | 176 | 4.0 | 5.0 | 0.00 | 0.00 | 0.00 | 76 | 998.7 |
| 20260902093620 | 65 | 172 | 4.0 | 5.0 | 0.00 | 0.00 | 0.00 | 76 | 998.7 |
| 20260902093115 | 65 | 170 | 3.0 | 5.0 | 0.00 | 0.00 | 0.00 | 76 | 998.7 |
| 20260902092611 | 65 | 190 | 4.0 | 5.0 | 0.00 | 0.00 | 0.00 | 75 | 998.7 |
| 20260902092329 | 65 | 173 | 4.0 | 5.0 | 0.00 | 0.00 | 0.00 | 75 | 998.7 |
| 20260902091602 | 66 | 178 | 4.0 | 5.0 | 0.00 | 0.00 | 0.00 | 75 | 998.7 |
| 20260902091058 | 66 | 175 | 4.0 | 5.0 | 0.00 | 0.00 | 0.00 | 74 | 998.5 |
| 20260902090552 | 66 | 169 | 4.0 | 5.0 | 0.00 | 0.00 | 0.00 | 74 | 998.7 |
| 20260902090049 | 67 | 171 | 4.0 | 5.0 | 0.00 | 0.00 | 0.00 | 73 | 998.5 |
| 20260902085544 | 67 | 173 | 4.0 | 5.0 | 0.00 | 0.00 | 0.00 | 72 | 998.5 |
| 20260902085040 | 67 | 175 | 4.0 | 5.0 | 0.00 | 0.00 | 0.00 | 71 | 998.5 |
| 20260902084535 | 68 | 171 | 4.0 | 5.0 | 0.00 | 0.00 | 0.00 | 70 | 998.4 |
| 20260902084021 | 68 | 174 | 4.0 | 5.0 | 0.00 | 0.00 | 0.00 | 70 | 998.3 |
| 20260902083529 | 69 | 166 | 3.0 | 5.0 | 0.00 | 0.00 | 0.00 | 70 | 998.4 |
| 20260902083012 | 69 | 160 | 3.0 | 5.0 | 0.00 | 0.00 | 0.00 | 69 | 998.3 |
| 20260902082508 | 69 | 181 | 3.0 | 5.0 | 0.00 | 0.00 | 0.00 | 68 | 998.1 |
| 20260902081953 | 69 | 174 | 3.0 | 5.0 | 0.00 | 0.00 | 0.00 | 68 | 998.2 |
| 20260902081449 | 69 | 172 | 3.0 | 5.0 | 0.00 | 0.00 | 0.00 | 68 | 998.2 |
| 20260902080948 | 69 | 170 | 5.0 | 5.0 | 0.00 | 0.00 | 0.00 | 68 | 998.1 |
| 20260902080448 | 70 | 166 | 3.0 | 5.0 | 0.00 | 0.00 | 0.00 | 67 | 998.1 |
| 20260902075936 | 70 | 179 | 4.0 | 5.0 | 0.00 | 0.00 | 0.00 | 66 | 998.0 |
| 20260902075418 | 71 | 167 | 3.0 | 5.0 | 0.00 | 0.00 | 0.00 | 64 | 998.0 |
| 20260902074931 | 71 | 177 | 3.0 | 4.0 | 0.00 | 0.00 | 0.00 | 61 | 998.0 |
| 20260902074418 | 72 | 176 | 3.0 | 4.0 | 0.00 | 0.00 | 0.00 | 56 | 998.0 |
| 20260902073918 | 73 | 172 | 4.0 | 4.0 | 0.00 | 0.00 | 0.00 | 53 | 997.8 |
| 20260902073414 | 73 | 180 | 4.0 | 4.0 | 0.00 | 0.00 | 0.00 | 54 | 998.0 |
| 20260902072900 | 73 | 180 | 3.0 | 5.0 | 0.00 | 0.00 | 0.00 | 53 | 997.7 |
| 20260902072407 | 73 | 178 | 4.0 | 5.0 | 0.00 | 0.00 | 0.00 | 54 | 997.7 |
| 20260902071839 | 74 | 170 | 4.0 | 5.0 | 0.00 | 0.00 | 0.00 | 53 | 997.7 |
| 20260902071336 | 74 | 184 | 4.0 | 5.0 | 0.00 | 0.00 | 0.00 | 53 | 997.7 |
| 20260902070811 | 75 | 177 | 4.0 | 5.0 | 0.00 | 0.00 | 0.00 | 52 | 997.8 |
| 20260902070308 | 75 | 180 | 4.0 | 5.0 | 0.00 | 0.00 | 0.00 | 53 | 997.7 |
| 20260902065803 | 76 | 160 | 4.0 | 5.0 | 0.00 | 0.00 | 0.00 | 51 | 997.5 |
| 20260902065519 | 76 | 180 | 4.0 | 5.0 | 0.00 | 0.00 | 0.00 | 50 | 997.6 |
| 20260902065020 | 76 | 183 | 3.0 | 6.0 | 0.00 | 0.00 | 0.00 | 49 | 997.6 |
| 20260902064250 | 76 | 175 | 4.0 | 6.0 | 0.00 | 0.00 | 0.00 | 51 | 997.6 |
| 20260902063745 | 76 | 178 | 2.0 | 5.0 | 0.00 | 0.00 | 0.00 | 51 | 997.5 |
| 20260902063241 | 76 | 179 | 4.0 | 5.0 | 0.00 | 0.00 | 0.00 | 50 | 997.3 |
| 20260902062717 | 76 | 185 | 3.0 | 5.0 | 0.00 | 0.00 | 0.00 | 53 | 997.5 |
| 20260902062215 | 76 | 182 | 3.0 | 5.0 | 0.00 | 0.00 | 0.00 | 51 | 997.4 |
| 20260902061715 | 76 | 179 | 2.0 | 5.0 | 0.00 | 0.00 | 0.00 | 51 | 997.3 |
| 20260902061215 | 76 | 178 | 4.0 | 5.0 | 0.00 | 0.00 | 0.00 | 49 | 997.4 |
| 20260902060715 | 76 | 176 | 4.0 | 6.0 | 0.00 | 0.00 | 0.00 | 50 | 997.4 |
| 20260902060214 | 77 | 180 | 3.0 | 6.0 | 0.00 | 0.00 | 0.00 | 49 | 997.4 |
| 20260902055710 | 77 | 177 | 4.0 | 5.0 | 0.00 | 0.00 | 0.00 | 47 | 997.3 |
| 20260902055204 | 78 | 183 | 3.0 | 6.0 | 0.00 | 0.00 | 0.00 | 48 | 997.5 |
| 20260902054908 | 78 | 182 | 3.0 | 6.0 | 0.00 | 0.00 | 0.00 | 47 | 997.4 |
| 20260902053652 | 78 | 173 | 4.0 | 6.0 | 0.00 | 0.00 | 0.00 | 48 | 997.4 |
| 20260902053148 | 77 | 188 | 3.0 | 6.0 | 0.00 | 0.00 | 0.00 | 47 | 997.5 |
| 20260902052644 | 77 | 179 | 3.0 | 7.0 | 0.00 | 0.00 | 0.00 | 49 | 997.7 |
| 20260902052403 | 78 | 168 | 5.0 | 7.0 | 0.00 | 0.00 | 0.00 | 48 | 997.4 |
| 20260902051615 | 79 | 187 | 3.0 | 6.0 | 0.00 | 0.00 | 0.00 | 46 | 997.6 |
| 20260902051321 | 79 | 158 | 5.0 | 6.0 | 0.00 | 0.00 | 0.00 | 45 | 997.7 |
| 20260902050555 | 79 | 181 | 4.0 | 6.0 | 0.00 | 0.00 | 0.00 | 46 | 997.6 |
| 20260902050041 | 79 | 177 | 4.0 | 6.0 | 0.00 | 0.00 | 0.00 | 47 | 997.7 |
| 20260902045537 | 79 | 183 | 4.0 | 5.0 | 0.00 | 0.00 | 0.00 | 45 | 997.7 |
| 20260902045033 | 79 | 166 | 5.0 | 5.0 | 0.00 | 0.00 | 0.00 | 47 | 998.0 |
| 20260902044528 | 79 | 181 | 4.0 | 6.0 | 0.00 | 0.00 | 0.00 | 48 | 997.8 |
| 20260902044014 | 79 | 183 | 3.0 | 6.0 | 0.00 | 0.00 | 0.00 | 46 | 997.7 |
| 20260902043510 | 78 | 178 | 4.0 | 6.0 | 0.00 | 0.00 | 0.00 | 46 | 997.8 |
| 20260902043450 | 79 | 168 | 5.0 | 6.0 | 0.00 | 0.00 | 0.00 | 45 | 998.0 |
| 20260902042451 | 80 | 176 | 3.0 | 6.0 | 0.00 | 0.00 | 0.00 | 45 | 998.3 |
| 20260902041947 | 81 | 175 | 4.0 | 6.0 | 0.00 | 0.00 | 0.00 | 43 | 998.0 |
| 20260902041442 | 80 | 176 | 2.0 | 6.0 | 0.00 | 0.00 | 0.00 | 41 | 998.1 |
| 20260902040954 | 80 | 177 | 5.0 | 6.0 | 0.00 | 0.00 | 0.00 | 45 | 998.3 |
| 20260902040442 | 82 | 176 | 5.0 | 6.0 | 0.00 | 0.00 | 0.00 | 41 | 998.1 |
| 20260902035920 | 81 | 175 | 5.0 | 6.0 | 0.00 | 0.00 | 0.00 | 44 | 998.4 |
| 20260902035411 | 81 | 176 | 4.0 | 6.0 | 0.00 | 0.00 | 0.00 | 47 | 998.3 |
| 20260902034911 | 82 | 183 | 4.0 | 6.0 | 0.00 | 0.00 | 0.00 | 42 | 998.6 |
| 20260902034411 | 82 | 180 | 4.0 | 6.0 | 0.00 | 0.00 | 0.00 | 43 | 998.5 |
| 20260902033911 | 82 | 191 | 4.0 | 6.0 | 0.00 | 0.00 | 0.00 | 41 | 998.6 |
| 20260902033409 | 80 | 184 | 4.0 | 6.0 | 0.00 | 0.00 | 0.00 | 43 | 998.6 |
| 20260902032905 | 80 | 166 | 6.0 | 6.0 | 0.00 | 0.00 | 0.00 | 43 | 998.6 |
| 20260902032401 | 80 | 170 | 6.0 | 6.0 | 0.00 | 0.00 | 0.00 | 43 | 998.8 |
| 20260902031857 | 81 | 175 | 5.0 | 6.0 | 0.00 | 0.00 | 0.00 | 42 | 998.8 |
| 20260902031352 | 82 | 159 | 3.0 | 6.0 | 0.00 | 0.00 | 0.00 | 41 | 999.0 |
| 20260902030848 | 82 | 172 | 5.0 | 6.0 | 0.00 | 0.00 | 0.00 | 43 | 999.0 |
| 20260902030344 | 82 | 175 | 4.0 | 7.0 | 0.00 | 0.00 | 0.00 | 43 | 999.1 |
| 20260902030100 | 83 | 176 | 5.0 | 7.0 | 0.00 | 0.00 | 0.00 | 43 | 999.1 |
| 20260902025335 | 82 | 170 | 5.0 | 6.0 | 0.00 | 0.00 | 0.00 | 42 | 999.2 |
| 20260902024831 | 82 | 166 | 4.0 | 7.0 | 0.00 | 0.00 | 0.00 | 41 | 999.3 |
| 20260902024327 | 82 | 167 | 6.0 | 7.0 | 0.00 | 0.00 | 0.00 | 43 | 999.2 |
| 20260902023823 | 82 | 196 | 6.0 | 7.0 | 0.00 | 0.00 | 0.00 | 39 | 999.5 |
| 20260902023319 | 82 | 187 | 4.0 | 7.0 | 0.00 | 0.00 | 0.00 | 41 | 999.4 |
| 20260902022815 | 81 | 187 | 5.0 | 7.0 | 0.00 | 0.00 | 0.00 | 42 | 999.5 |
| 20260902022311 | 82 | 193 | 4.0 | 7.0 | 0.00 | 0.00 | 0.00 | 40 | 999.8 |
| 20260902022032 | 82 | 180 | 3.0 | 6.0 | 0.00 | 0.00 | 0.00 | 43 | 999.8 |
| 20260902021252 | 82 | 166 | 5.0 | 6.0 | 0.00 | 0.00 | 0.00 | 43 | 1000.0 |
| 20260902020801 | 81 | 166 | 4.0 | 6.0 | 0.00 | 0.00 | 0.00 | 41 | 1000.3 |
| 20260902020244 | 83 | 193 | 3.0 | 6.0 | 0.00 | 0.00 | 0.00 | 41 | 1000.3 |
| 20260902015740 | 82 | 185 | 4.0 | 6.0 | 0.00 | 0.00 | 0.00 | 44 | 1000.4 |
| 20260902015238 | 83 | 185 | 5.0 | 6.0 | 0.00 | 0.00 | 0.00 | 44 | 1000.4 |
| 20260902014737 | 82 | 177 | 3.0 | 6.0 | 0.00 | 0.00 | 0.00 | 43 | 1000.7 |
| 20260902014238 | 80 | 182 | 4.0 | 6.0 | 0.00 | 0.00 | 0.00 | 45 | 1000.7 |
| 20260902013738 | 81 | 207 | 4.0 | 8.0 | 0.00 | 0.00 | 0.00 | 43 | 1000.7 |
| 20260902013237 | 82 | 177 | 3.0 | 8.0 | 0.00 | 0.00 | 0.00 | 42 | 1000.9 |
| 20260902012722 | 81 | 181 | 4.0 | 7.0 | 0.00 | 0.00 | 0.00 | 46 | 1001.2 |
| 20260902012230 | 80 | 174 | 4.0 | 7.0 | 0.00 | 0.00 | 0.00 | 46 | 1001.1 |
| 20260902011944 | 81 | 176 | 3.0 | 7.0 | 0.00 | 0.00 | 0.00 | 44 | 1001.2 |
| 20260902011209 | 81 | 180 | 4.0 | 8.0 | 0.00 | 0.00 | 0.00 | 43 | 1001.2 |
| 20260902010929 | 81 | 168 | 5.0 | 8.0 | 0.00 | 0.00 | 0.00 | 44 | 1001.5 |
| 20260902010201 | 81 | 173 | 5.0 | 8.0 | 0.00 | 0.00 | 0.00 | 45 | 1001.3 |
| 20260902005656 | 81 | 180 | 4.0 | 6.0 | 0.00 | 0.00 | 0.00 | 48 | 1001.8 |
| 20260902005152 | 82 | 167 | 5.0 | 6.0 | 0.00 | 0.00 | 0.00 | 45 | 1001.6 |
| 20260902004648 | 80 | 174 | 4.0 | 6.0 | 0.00 | 0.00 | 0.00 | 48 | 1001.8 |
| 20260902004404 | 79 | 163 | 5.0 | 7.0 | 0.00 | 0.00 | 0.00 | 48 | 1002.1 |
| 20260902003857 | 79 | 166 | 5.0 | 7.0 | 0.00 | 0.00 | 0.00 | 48 | 1002.0 |
| 20260902003126 | 79 | 175 | 4.0 | 6.0 | 0.00 | 0.00 | 0.00 | 49 | 1002.2 |
| 20260902003102 | 80 | 171 | 5.0 | 7.0 | 0.00 | 0.00 | 0.00 | 46 | 1002.4 |
| 20260902002129 | 79 | 175 | 3.0 | 7.0 | 0.00 | 0.00 | 0.00 | 47 | 1002.3 |
| 20260902001612 | 79 | 176 | 4.0 | 6.0 | 0.00 | 0.00 | 0.00 | 50 | 1002.5 |
| 20260902001106 | 79 | 171 | 4.0 | 6.0 | 0.00 | 0.00 | 0.00 | 49 | 1002.5 |
| 20260902000604 | 78 | 3 | 4.0 | 6.0 | 0.00 | 0.00 | 0.00 | 51 | 1002.5 |
| 20260902000110 | 78 | 36 | 2.0 | 6.0 | 0.00 | 0.00 | 0.00 | 52 | 1002.7 |
| 20260901235553 | 78 | 345 | 3.0 | 5.0 | 0.00 | 0.00 | 0.00 | 54 | 1002.7 |
| 20260901235049 | 78 | 6 | 2.0 | 5.0 | 0.00 | 0.00 | 0.00 | 52 | 1002.6 |
| 20260901234808 | 78 | 30 | 2.0 | 5.0 | 0.00 | 0.00 | 0.00 | 53 | 1002.7 |
| 20260901234301 | 77 | 18 | 2.0 | 5.0 | 0.00 | 0.00 | 0.00 | 56 | 1002.7 |
| 20260901233759 | 76 | 345 | 3.0 | 6.0 | 0.00 | 0.00 | 0.00 | 55 | 1002.9 |
| 20260901233013 | 74 | 3 | 2.0 | 6.0 | 0.00 | 0.00 | 0.00 | 56 | 1002.8 |
| 20260901232521 | 75 | 328 | 5.0 | 6.0 | 0.00 | 0.00 | 0.00 | 58 | 1002.9 |
| 20260901232241 | 74 | 331 | 3.0 | 5.0 | 0.00 | 0.00 | 0.00 | 59 | 1002.9 |
| 20260901231500 | 73 | 318 | 4.0 | 5.0 | 0.00 | 0.00 | 0.00 | 57 | 1002.8 |
| 20260901230956 | 72 | 25 | 2.0 | 6.0 | 0.00 | 0.00 | 0.00 | 62 | 1002.9 |
| 20260901230505 | 72 | 337 | 4.0 | 6.0 | 0.00 | 0.00 | 0.00 | 62 | 1002.9 |
| 20260901225939 | 70 | 327 | 2.0 | 6.0 | 0.00 | 0.00 | 0.00 | 65 | 1002.9 |
| 20260901225425 | 69 | 336 | 4.0 | 6.0 | 0.00 | 0.00 | 0.00 | 64 | 1002.9 |
| 20260901224920 | 68 | 338 | 4.0 | 6.0 | 0.00 | 0.00 | 0.00 | 65 | 1003.0 |
| 20260901224416 | 68 | 8 | 3.0 | 6.0 | 0.00 | 0.00 | 0.00 | 64 | 1003.0 |
| 20260901224136 | 68 | 335 | 4.0 | 6.0 | 0.00 | 0.00 | 0.00 | 64 | 1003.1 |
| 20260901223408 | 67 | 332 | 4.0 | 5.0 | 0.00 | 0.00 | 0.00 | 66 | 1003.0 |
| 20260901223110 | 66 | 335 | 4.0 | 5.0 | 0.00 | 0.00 | 0.00 | 66 | 1003.1 |
| 20260901222607 | 67 | 347 | 4.0 | 6.0 | 0.00 | 0.00 | 0.00 | 67 | 1003.3 |
| 20260901221844 | 66 | 345 | 3.0 | 6.0 | 0.00 | 0.00 | 0.00 | 67 | 1003.2 |
| 20260901221340 | 67 | 220 | 3.0 | 5.0 | 0.00 | 0.00 | 0.00 | 66 | 1003.2 |
| 20260901220832 | 67 | 199 | 3.0 | 5.0 | 0.00 | 0.00 | 0.00 | 66 | 1003.0 |
| 20260901220311 | 68 | 180 | 4.0 | 5.0 | 0.00 | 0.00 | 0.00 | 65 | 1003.1 |
| 20260901215746 | 67 | 180 | 4.0 | 5.0 | 0.00 | 0.00 | 0.00 | 66 | 1003.0 |
| 20260901215243 | 66 | 178 | 4.0 | 5.0 | 0.00 | 0.00 | 0.00 | 68 | 1003.1 |
| 20260901214738 | 64 | 185 | 4.0 | 5.0 | 0.00 | 0.00 | 0.00 | 74 | 1003.0 |
| 20260901214234 | 64 | 188 | 4.0 | 5.0 | 0.00 | 0.00 | 0.00 | 74 | 1003.0 |
| 20260901213730 | 62 | 183 | 3.0 | 5.0 | 0.00 | 0.00 | 0.00 | 76 | 1002.9 |
| 20260901213447 | 59 | 184 | 3.0 | 5.0 | 0.00 | 0.00 | 0.00 | 83 | 1002.8 |
| 20260901212712 | 58 | 178 | 3.0 | 4.0 | 0.00 | 0.00 | 0.00 | 84 | 1002.7 |
| 20260901212208 | 56 | 189 | 3.0 | 4.0 | 0.00 | 0.00 | 0.00 | 86 | 1002.8 |
| 20260901211923 | 56 | 196 | 4.0 | 4.0 | 0.00 | 0.00 | 0.00 | 87 | 1002.7 |
| 20260901211200 | 56 | 190 | 3.0 | 4.0 | 0.00 | 0.00 | 0.00 | 90 | 1002.8 |
| 20260901210655 | 55 | 194 | 4.0 | 4.0 | 0.00 | 0.00 | 0.00 | 95 | 1002.9 |
| 20260901210130 | 54 | 188 | 3.0 | 4.0 | 0.00 | 0.00 | 0.00 | 96 | 1002.8 |
| 20260901205630 | 54 | 187 | 4.0 | 5.0 | 0.00 | 0.00 | 0.00 | 96 | 1002.8 |
| 20260901205112 | 53 | 180 | 4.0 | 5.0 | 0.00 | 0.00 | 0.00 | 97 | 1002.5 |
| 20260901204831 | 53 | 177 | 4.0 | 5.0 | 0.00 | 0.00 | 0.00 | 97 | 1002.8 |
| 20260901204053 | 52 | 180 | 4.0 | 4.0 | 0.00 | 0.00 | 0.00 | 97 | 1002.8 |
| 20260901203551 | 52 | 180 | 4.0 | 4.0 | 0.00 | 0.00 | 0.00 | 97 | 1002.6 |
| 20260901203244 | 51 | 182 | 3.0 | 5.0 | 0.00 | 0.00 | 0.00 | 97 | 1002.5 |
| 20260901202521 | 52 | 186 | 3.0 | 5.0 | 0.00 | 0.00 | 0.00 | 97 | 1002.6 |
| 20260901202015 | 52 | 180 | 4.0 | 5.0 | 0.00 | 0.00 | 0.00 | 97 | 1002.7 |
| 20260901201511 | 52 | 181 | 4.0 | 5.0 | 0.00 | 0.00 | 0.00 | 97 | 1002.4 |
| 20260901201007 | 52 | 180 | 4.0 | 5.0 | 0.00 | 0.00 | 0.00 | 97 | 1002.3 |
| 20260901200503 | 52 | 180 | 4.0 | 5.0 | 0.00 | 0.00 | 0.00 | 97 | 1002.3 |
| 20260901195949 | 52 | 181 | 4.0 | 5.0 | 0.00 | 0.00 | 0.00 | 97 | 1002.2 |
| 20260901195445 | 52 | 173 | 4.0 | 5.0 | 0.00 | 0.00 | 0.00 | 97 | 1002.3 |
| 20260901195210 | 52 | 172 | 4.0 | 5.0 | 0.00 | 0.00 | 0.00 | 97 | 1002.3 |
| 20260901194435 | 52 | 176 | 4.0 | 5.0 | 0.00 | 0.00 | 0.00 | 97 | 1002.2 |
| 20260901193928 | 52 | 178 | 5.0 | 5.0 | 0.00 | 0.00 | 0.00 | 97 | 1002.1 |
| 20260901193427 | 51 | 178 | 4.0 | 5.0 | 0.00 | 0.00 | 0.00 | 96 | 1002.0 |
| 20260901193144 | 52 | 178 | 4.0 | 5.0 | 0.00 | 0.00 | 0.00 | 96 | 1002.0 |
| 20260901192419 | 51 | 192 | 4.0 | 5.0 | 0.00 | 0.00 | 0.00 | 96 | 1001.9 |
| 20260901191914 | 51 | 180 | 4.0 | 5.0 | 0.00 | 0.00 | 0.00 | 96 | 1001.9 |
| 20260901191410 | 51 | 172 | 4.0 | 5.0 | 0.00 | 0.00 | 0.00 | 96 | 1002.1 |
| 20260901190905 | 52 | 180 | 3.0 | 5.0 | 0.00 | 0.00 | 0.00 | 96 | 1001.9 |
| 20260901190401 | 53 | 181 | 4.0 | 5.0 | 0.00 | 0.00 | 0.00 | 96 | 1002.1 |
| 20260901185857 | 52 | 173 | 4.0 | 5.0 | 0.00 | 0.00 | 0.00 | 96 | 1002.2 |
| 20260901185352 | 52 | 178 | 3.0 | 5.0 | 0.00 | 0.00 | 0.00 | 96 | 1001.9 |
| 20260901184848 | 53 | 171 | 4.0 | 5.0 | 0.00 | 0.00 | 0.00 | 96 | 1002.0 |
| 20260901184343 | 53 | 180 | 3.0 | 5.0 | 0.00 | 0.00 | 0.00 | 96 | 1002.1 |
| 20260901183839 | 53 | 178 | 4.0 | 5.0 | 0.00 | 0.00 | 0.00 | 96 | 1001.8 |
| 20260901183335 | 53 | 175 | 4.0 | 5.0 | 0.00 | 0.00 | 0.00 | 96 | 1001.8 |
| 20260901182826 | 53 | 170 | 4.0 | 5.0 | 0.00 | 0.00 | 0.00 | 96 | 1001.9 |
| 20260901182325 | 53 | 173 | 5.0 | 5.0 | 0.00 | 0.00 | 0.00 | 96 | 1001.8 |
| 20260901181811 | 53 | 179 | 4.0 | 5.0 | 0.00 | 0.00 | 0.00 | 96 | 1001.7 |
| 20260901181308 | 53 | 175 | 4.0 | 5.0 | 0.00 | 0.00 | 0.00 | 96 | 1001.8 |
| 20260901180754 | 53 | 175 | 3.0 | 5.0 | 0.00 | 0.00 | 0.00 | 96 | 1001.8 |
| 20260901180249 | 53 | 175 | 4.0 | 5.0 | 0.00 | 0.00 | 0.00 | 96 | 1001.9 |
| 20260901175735 | 53 | 180 | 4.0 | 5.0 | 0.00 | 0.00 | 0.00 | 96 | 1001.7 |
| 20260901175453 | 53 | 180 | 3.0 | 5.0 | 0.00 | 0.00 | 0.00 | 96 | 1001.7 |
| 20260901174724 | 53 | 165 | 4.0 | 5.0 | 0.00 | 0.00 | 0.00 | 96 | 1001.9 |
| 20260901174715 | 53 | 178 | 4.0 | 5.0 | 0.00 | 0.00 | 0.00 | 96 | 1001.9 |
| 20260901173718 | 53 | 173 | 3.0 | 5.0 | 0.00 | 0.00 | 0.00 | 96 | 1002.0 |
| 20260901173433 | 53 | 170 | 5.0 | 5.0 | 0.00 | 0.00 | 0.00 | 96 | 1001.8 |
| 20260901172710 | 53 | 177 | 4.0 | 5.0 | 0.00 | 0.00 | 0.00 | 96 | 1002.1 |
| 20260901172205 | 53 | 173 | 4.0 | 5.0 | 0.00 | 0.00 | 0.00 | 96 | 1002.1 |
| 20260901171700 | 53 | 179 | 4.0 | 5.0 | 0.00 | 0.00 | 0.00 | 95 | 1002.1 |
| 20260901171420 | 53 | 173 | 4.0 | 5.0 | 0.00 | 0.00 | 0.00 | 95 | 1002.1 |
| 20260901170650 | 0 | 0.0 | 5.0 | 0.00 | 0.00 | 0.00 | |||
| 20260901170145 | 53 | 175 | 4.0 | 5.0 | 0.00 | 0.00 | 0.00 | 95 | 1002.1 |
| 20260901165614 | 53 | 178 | 4.0 | 5.0 | 0.00 | 0.00 | 0.00 | 95 | 1002.3 |
| 20260901165110 | 53 | 180 | 4.0 | 5.0 | 0.00 | 0.00 | 0.00 | 95 | 1002.1 |
| 20260901164606 | 53 | 184 | 4.0 | 5.0 | 0.00 | 0.00 | 0.00 | 95 | 1002.3 |
| 20260901164100 | 53 | 182 | 4.0 | 5.0 | 0.00 | 0.00 | 0.00 | 95 | 1002.2 |
| 20260901163554 | 53 | 184 | 4.0 | 5.0 | 0.00 | 0.00 | 0.00 | 95 | 1002.4 |
| 20260901163324 | 53 | 184 | 4.0 | 5.0 | 0.00 | 0.00 | 0.00 | 94 | 1002.3 |
| 20260901162554 | 53 | 176 | 3.0 | 5.0 | 0.00 | 0.00 | 0.00 | 94 | 1002.4 |
| 20260901162052 | 53 | 178 | 4.0 | 5.0 | 0.00 | 0.00 | 0.00 | 94 | 1002.4 |
| 20260901161548 | 53 | 176 | 4.0 | 5.0 | 0.00 | 0.00 | 0.00 | 94 | 1002.2 |
| 20260901161045 | 54 | 179 | 4.0 | 5.0 | 0.00 | 0.00 | 0.00 | 94 | 1002.1 |
| 20260901160539 | 54 | 178 | 4.0 | 5.0 | 0.00 | 0.00 | 0.00 | 94 | 1002.4 |
| 20260901160047 | 54 | 180 | 3.0 | 5.0 | 0.00 | 0.00 | 0.00 | 93 | 1002.5 |
| 20260901155530 | 54 | 176 | 4.0 | 5.0 | 0.00 | 0.00 | 0.00 | 93 | 1002.6 |
| 20260901155023 | 54 | 180 | 4.0 | 5.0 | 0.00 | 0.00 | 0.00 | 93 | 1002.6 |
| 20260901154511 | 54 | 180 | 4.0 | 5.0 | 0.00 | 0.00 | 0.00 | 93 | 1002.5 |
| 20260901154008 | 54 | 180 | 4.0 | 5.0 | 0.00 | 0.00 | 0.00 | 92 | 1002.8 |
| 20260901153453 | 55 | 176 | 4.0 | 5.0 | 0.00 | 0.00 | 0.00 | 92 | 1002.5 |
| 20260901153207 | 55 | 180 | 3.0 | 5.0 | 0.00 | 0.00 | 0.00 | 91 | 1002.8 |
| 20260901152445 | 55 | 177 | 4.0 | 6.0 | 0.00 | 0.00 | 0.00 | 91 | 1002.9 |
| 20260901151940 | 55 | 172 | 4.0 | 6.0 | 0.00 | 0.00 | 0.00 | 91 | 1003.0 |
| 20260901151426 | 55 | 173 | 4.0 | 5.0 | 0.00 | 0.00 | 0.00 | 91 | 1003.2 |
| 20260901151133 | 55 | 176 | 4.0 | 5.0 | 0.00 | 0.00 | 0.00 | 91 | 1003.1 |
| 20260901150408 | 56 | 180 | 4.0 | 6.0 | 0.00 | 0.00 | 0.00 | 90 | 1003.2 |
| 20260901145853 | 56 | 175 | 3.0 | 6.0 | 0.00 | 0.00 | 0.00 | 90 | 1003.2 |
| 20260901145348 | 56 | 184 | 4.0 | 5.0 | 0.00 | 0.00 | 0.00 | 89 | 1003.2 |
| 20260901144823 | 56 | 184 | 4.0 | 5.0 | 0.00 | 0.00 | 0.00 | 89 | 1003.2 |
| 20260901144319 | 56 | 180 | 4.0 | 5.0 | 0.00 | 0.00 | 0.00 | 89 | 1003.3 |
| 20260901144038 | 56 | 191 | 4.0 | 6.0 | 0.00 | 0.00 | 0.00 | 89 | 1003.3 |
| 20260901143311 | 56 | 184 | 4.0 | 6.0 | 0.00 | 0.00 | 0.00 | 89 | 1003.1 |
| 20260901143032 | 56 | 178 | 4.0 | 6.0 | 0.00 | 0.00 | 0.00 | 89 | 1003.3 |
| 20260901142253 | 56 | 176 | 4.0 | 5.0 | 0.00 | 0.00 | 0.00 | 89 | 1003.4 |
| 20260901141729 | 56 | 182 | 3.0 | 5.0 | 0.00 | 0.00 | 0.00 | 89 | 1003.4 |
| 20260901141435 | 56 | 182 | 4.0 | 5.0 | 0.00 | 0.00 | 0.00 | 89 | 1003.4 |
| 20260901140710 | 56 | 178 | 4.0 | 5.0 | 0.00 | 0.00 | 0.00 | 88 | 1003.4 |
| 20260901140206 | 56 | 174 | 4.0 | 5.0 | 0.00 | 0.00 | 0.00 | 88 | 1003.6 |
| 20260901135702 | 56 | 176 | 4.0 | 5.0 | 0.00 | 0.00 | 0.00 | 88 | 1003.6 |
| 20260901135157 | 56 | 179 | 4.0 | 5.0 | 0.00 | 0.00 | 0.00 | 88 | 1003.8 |
| 20260901134649 | 57 | 180 | 4.0 | 5.0 | 0.00 | 0.00 | 0.00 | 87 | 1003.6 |
| 20260901134149 | 57 | 179 | 4.0 | 5.0 | 0.00 | 0.00 | 0.00 | 87 | 1003.7 |
| 20260901133626 | 57 | 174 | 5.0 | 5.0 | 0.00 | 0.00 | 0.00 | 86 | 1003.8 |
| 20260901133121 | 58 | 180 | 4.0 | 5.0 | 0.00 | 0.00 | 0.00 | 86 | 1003.8 |
| 20260901132617 | 58 | 177 | 4.0 | 5.0 | 0.00 | 0.00 | 0.00 | 86 | 1003.7 |
| 20260901132112 | 58 | 180 | 4.0 | 5.0 | 0.00 | 0.00 | 0.00 | 86 | 1003.6 |
| 20260901131559 | 57 | 176 | 4.0 | 5.0 | 0.00 | 0.00 | 0.00 | 86 | 1003.8 |
| 20260901131048 | 57 | 169 | 4.0 | 5.0 | 0.00 | 0.00 | 0.00 | 86 | 1003.8 |
| 20260901130548 | 58 | 177 | 3.0 | 5.0 | 0.00 | 0.00 | 0.00 | 86 | 1003.8 |
| 20260901130333 | 58 | 172 | 4.0 | 5.0 | 0.00 | 0.00 | 0.00 | 85 | 1003.9 |
| 20260901125549 | 58 | 171 | 4.0 | 5.0 | 0.00 | 0.00 | 0.00 | 84 | 1003.9 |
| 20260901125047 | 58 | 188 | 4.0 | 5.0 | 0.00 | 0.00 | 0.00 | 84 | 1004.0 |
| 20260901124533 | 58 | 173 | 5.0 | 5.0 | 0.00 | 0.00 | 0.00 | 84 | 1003.9 |
| 20260901124029 | 58 | 175 | 4.0 | 5.0 | 0.00 | 0.00 | 0.00 | 84 | 1003.9 |
| 20260901123524 | 59 | 190 | 3.0 | 5.0 | 0.00 | 0.00 | 0.00 | 83 | 1003.9 |
| 20260901123021 | 59 | 185 | 4.0 | 5.0 | 0.00 | 0.00 | 0.00 | 83 | 1004.1 |
| 20260901122516 | 59 | 172 | 4.0 | 5.0 | 0.00 | 0.00 | 0.00 | 82 | 1004.1 |
| 20260901122012 | 59 | 166 | 5.0 | 5.0 | 0.00 | 0.00 | 0.00 | 82 | 1004.0 |
| 20260901121508 | 60 | 165 | 5.0 | 5.0 | 0.00 | 0.00 | 0.00 | 81 | 1004.1 |
| 20260901120954 | 59 | 179 | 4.0 | 5.0 | 0.00 | 0.00 | 0.00 | 81 | 1004.1 |
| 20260901120446 | 59 | 195 | 4.0 | 6.0 | 0.00 | 0.00 | 0.00 | 82 | 1004.1 |
| 20260901115946 | 59 | 194 | 4.0 | 6.0 | 0.00 | 0.00 | 0.00 | 82 | 1004.0 |
| 20260901115446 | 60 | 182 | 5.0 | 6.0 | 0.00 | 0.00 | 0.00 | 81 | 1004.1 |
| 20260901114915 | 60 | 182 | 4.0 | 6.0 | 0.00 | 0.00 | 0.00 | 81 | 1004.3 |
| 20260901114412 | 60 | 176 | 4.0 | 6.0 | 0.00 | 0.00 | 0.00 | 81 | 1004.2 |
| 20260901113857 | 60 | 183 | 4.0 | 6.0 | 0.00 | 0.00 | 0.00 | 81 | 1004.2 |
| 20260901113345 | 60 | 180 | 4.0 | 6.0 | 0.00 | 0.00 | 0.00 | 81 | 1004.1 |
| 20260901112845 | 60 | 182 | 4.0 | 6.0 | 0.00 | 0.00 | 0.00 | 81 | 1004.2 |
| 20260901112334 | 60 | 185 | 3.0 | 6.0 | 0.00 | 0.00 | 0.00 | 81 | 1004.2 |
| 20260901111814 | 60 | 185 | 4.0 | 7.0 | 0.00 | 0.00 | 0.00 | 81 | 1004.2 |
| 20260901111537 | 60 | 182 | 4.0 | 7.0 | 0.00 | 0.00 | 0.00 | 81 | 1004.3 |
| 20260901110809 | 60 | 176 | 5.0 | 6.0 | 0.00 | 0.00 | 0.00 | 81 | 1004.3 |
| 20260901110246 | 60 | 193 | 4.0 | 6.0 | 0.00 | 0.00 | 0.00 | 81 | 1004.2 |
| 20260901105744 | 60 | 175 | 5.0 | 7.0 | 0.00 | 0.00 | 0.00 | 81 | 1004.3 |
| 20260901105236 | 60 | 189 | 4.0 | 7.0 | 0.00 | 0.00 | 0.00 | 82 | 1004.3 |